Estació meteorològica de Calldetenes (Osona, Plana de Vic)

Consulta les dades en temps real de l'estació meteorològica de Calldetenes





Hora UTC 07:20
Temperatura 9.8 ºC
Sòl 15 cm 8.6 ºC
Humitat 85.0 %
Pressió 1012.6 hPa
Pluja 0.0 mm
Velocitat vent 4.5 km/h
Direcció vent NW
Radiació solar 380.4 W/m²

Webcam

Dades diàries 2026-05-06



Hora UTC (hivern +1h; estiu +2h)
Temperatura (ºC) Humitat (%) Pressió (hPa) Velocitat vent (km/h) Precipitació (mm) Radiació solar (W/m²)
Hora UTC Aire Sòl 15 cm Humitat Pressió Vel. Dir. Vel. Max Dir. Intent. màx 5 min. Rad. Sol.
00:05 7.1 6.7 100.0 1011.7 4.2 E 4.2 E 0.0 0.2
00:10 7.2 6.8 100.0 1011.7 3.3 ESE 5.3 E 0.0 0.1
00:15 7.0 6.8 100.0 1011.7 2.8 ESE 4.9 ESE 0.0 0.1
00:20 6.8 6.6 99.8 1011.7 3.0 ESE 4.9 ESE 0.0 0.1
00:25 6.5 6.4 99.7 1011.7 3.0 ESE 4.9 SE 0.0 0.1
00:30 6.4 6.3 99.6 1011.7 2.5 SE 4.2 SE 0.0 0.1
00:35 6.3 6.1 99.8 1011.7 1.9 SSE 2.8 SE 0.0 0.1
00:40 6.4 6.0 100.0 1011.7 1.5 ESE 2.8 ESE 0.0 0.1
00:45 6.2 5.9 99.9 1011.6 0.6 ESE 2.8 SE 0.0 0.1
00:50 6.0 5.7 99.8 1011.6 1.1 ESE 3.2 ESE 0.0 0.1
00:55 5.9 5.6 100.0 1011.6 1.7 ESE 4.6 ESE 0.0 0.1
01:00 6.1 5.6 100.0 1011.6 3.1 ESE 4.2 ESE 0.0 0.1
01:05 5.9 5.7 100.0 1011.6 3.8 E 5.6 ESE 0.0 0.1
01:10 6.0 5.7 100.0 1011.6 3.7 E 5.6 ESE 0.0 0.1
01:15 6.1 5.9 100.0 1011.6 2.2 E 3.9 ENE 0.0 0.1
01:20 6.5 6.2 100.0 1011.6 3.0 ESE 6.7 E 0.0 0.1
01:25 7.0 6.6 100.0 1011.5 2.6 ESE 4.2 SE 0.0 0.1
01:30 7.1 7.0 100.0 1011.5 1.4 SSW 3.5 SSW 0.0 0.1
01:35 7.2 7.2 100.0 1011.5 0.3 NE 1.4 NNE 0.0 0.1
01:40 7.1 7.3 100.0 1011.5 0.5 ENE 2.8 ENE 0.0 0.2
01:45 7.3 7.4 100.0 1011.4 0.8 SE 3.2 ENE 0.0 0.1
01:50 7.5 7.5 100.0 1011.4 1.7 E 4.9 ESE 0.0 0.1
01:55 7.8 7.7 100.0 1011.4 2.8 SE 4.9 ESE 0.0 0.1
02:00 8.0 7.9 100.0 1011.4 2.9 SE 5.3 SSE 0.0 0.1
02:05 8.3 8.1 100.0 1011.5 2.2 SE 3.9 SE 0.0 0.1
02:10 8.3 8.2 100.0 1011.5 2.0 SSE 4.9 SE 0.0 0.1
02:15 8.1 8.2 100.0 1011.4 2.4 S 3.5 SW 0.0 0.1
02:20 8.1 8.3 100.0 1011.4 1.9 SSW 3.9 SSW 0.0 0.1
02:25 8.1 8.3 100.0 1011.4 1.0 SSW 3.2 SW 0.0 0.1
02:30 8.2 8.4 100.0 1011.4 3.2 SW 4.9 SW 0.0 0.1
02:35 8.2 8.4 100.0 1011.6 3.5 SW 5.6 SW 0.0 0.1
02:40 8.2 8.5 100.0 1011.6 3.7 SSW 6.0 SSW 0.0 0.2
02:45 8.1 8.5 100.0 1011.6 3.8 S 5.3 S 0.0 0.2
02:50 8.0 8.4 100.0 1011.6 2.4 SE 4.2 SSW 0.0 0.1
02:55 7.9 8.3 100.0 1011.6 2.9 ESE 6.0 SE 0.0 0.1
03:00 7.9 8.2 100.0 1011.6 2.7 E 5.6 ESE 0.0 0.1
03:05 7.8 8.1 100.0 1011.5 3.0 ESE 6.4 ESE 0.0 0.1
03:10 7.6 8.0 100.0 1011.5 3.2 E 5.3 E 0.0 0.1
03:15 7.3 7.7 100.0 1011.5 1.5 SE 3.9 SE 0.0 0.1
03:20 7.1 7.5 100.0 1011.5 2.1 ESE 3.9 E 0.0 0.1
03:25 7.0 7.3 100.0 1011.4 1.2 SSE 3.2 ESE 0.0 0.1
03:30 6.8 7.1 100.0 1011.4 0.3 N 1.8 NNE 0.0 0.1
03:35 6.6 6.9 100.0 1011.5 0.6 N 2.1 N 0.0 0.1
03:40 6.5 6.8 100.0 1011.5 0.0 NNE 0.0 N 0.0 0.1
03:45 6.5 6.7 100.0 1011.5 0.0 NNE 0.0 WNW 0.0 0.1
03:50 6.6 6.8 100.0 1011.5 0.8 N 2.1 N 0.0 0.1
03:55 6.7 6.9 100.0 1011.5 2.4 SE 5.3 SSE 0.0 0.1
04:00 6.8 7.0 100.0 1011.5 3.3 S 5.6 SSE 0.0 0.1
04:05 6.8 7.1 100.0 1011.6 1.8 S 3.5 S 0.0 0.1
04:10 6.7 7.1 100.0 1011.6 2.9 S 4.6 S 0.0 0.1
04:15 6.4 7.0 100.0 1011.6 2.7 S 4.9 SSW 0.0 0.1
04:20 6.3 6.8 100.0 1011.6 4.0 S 6.0 S 0.0 0.2
04:25 6.3 6.8 100.0 1011.7 3.4 S 4.9 SSE 0.0 0.3
04:30 6.2 6.7 100.0 1011.7 2.3 SE 4.2 ESE 0.0 0.5
04:35 6.2 6.6 100.0 1011.7 3.1 SSE 4.6 ESE 0.0 1.2
04:40 6.2 6.5 100.0 1011.7 4.4 SE 7.1 SSE 0.0 2.2
04:45 6.1 6.4 100.0 1011.8 3.2 S 6.7 SSW 0.0 3.7
04:50 6.1 6.3 100.0 1011.8 2.7 SSE 4.6 SSE 0.0 5.4
04:55 6.0 6.2 100.0 1011.8 1.7 SSW 4.6 S 0.0 7.2
05:00 6.1 6.1 100.0 1011.8 4.0 SSE 7.8 SSW 0.0 9.2
05:05 5.9 6.0 100.0 1011.8 1.5 W 4.6 W 0.0 11.5
05:10 5.8 5.8 100.0 1011.8 0.0 W 1.1 W 0.0 13.9
05:15 5.8 5.7 100.0 1011.9 0.8 NW 2.5 WNW 0.0 15.9
05:20 6.0 5.6 100.0 1011.9 4.7 SSW 8.8 SSW 0.0 18.1
05:25 6.1 5.9 100.0 1012.1 1.6 SSW 3.9 SW 0.0 22.5
05:30 6.2 6.0 100.0 1012.1 2.9 SSW 4.6 SSW 0.0 30.1
05:35 6.2 6.2 100.0 1012.2 1.5 SE 3.2 SSW 0.0 35.9
05:40 6.3 6.2 100.0 1012.2 1.1 ESE 2.8 ENE 0.0 37.4
05:45 6.4 6.3 100.0 1012.4 0.8 E 2.8 E 0.0 39.3
05:50 6.7 6.4 100.0 1012.4 5.2 ESE 7.8 ESE 0.0 38.9
05:55 6.9 6.6 100.0 1012.5 4.4 ESE 8.1 ESE 0.0 45.2
06:00 7.1 6.7 100.0 1012.5 3.1 ESE 5.3 ESE 0.0 49.9
06:05 7.4 6.9 100.0 1012.5 2.6 E 5.3 ESE 0.0 57.4
06:10 7.7 7.2 100.0 1012.5 2.2 E 4.2 ENE 0.0 49.8
06:15 7.9 7.5 100.0 1012.5 1.0 E 2.8 NE 0.0 48.5
06:20 8.0 7.6 100.0 1012.5 1.7 ENE 4.6 E 0.0 50.5
06:25 8.3 7.7 100.0 1012.6 2.1 ENE 3.9 E 0.0 213.2
06:30 8.4 7.9 100.0 1012.6 1.6 NE 2.8 NE 0.0 259.1
06:35 8.4 8.0 100.0 1012.6 0.9 N 2.8 N 0.0 273.9
06:40 8.4 8.1 100.0 1012.6 3.3 WNW 12.4 W 0.0 288.2
06:45 8.3 8.1 100.0 1012.6 8.9 W 16.9 W 0.0 305.7
06:50 8.6 8.2 99.0 1012.6 5.3 W 10.2 NNW 0.0 312.2
06:55 8.8 8.4 97.0 1012.6 8.1 NW 13.8 WNW 0.0 333.6
07:00 9.1 8.5 93.8 1012.6 8.1 WNW 14.8 W 0.0 341.6
07:05 9.4 8.5 89.1 1012.6 7.4 WNW 14.8 WNW 0.0 353.0
07:10 9.6 8.5 86.5 1012.6 8.7 W 17.6 WNW 0.0 369.0
07:15 9.8 8.6 84.0 1012.6 11.0 WNW 17.6 WNW 0.0 380.6
07:20 9.8 8.6 85.0 1012.6 4.5 NW 9.5 N 0.0 380.4
07:25 10.0 8.6 85.1 1012.6 3.6 NW 8.5 W 0.0 236.4
Màxima 10.0 8.6 100.0 1012.6 11.0 WNW 17.6 WNW 0.0 380.6
Mínima 5.8 5.6 84.0 1011.4
Total 0.0